TimeGMT,TemperatureF,Dew PointF,Humidity,Sea Level PressureIn,VisibilityMPH,Wind Direction,Wind SpeedMPH,Gust SpeedMPH,PrecipitationIn,Events,Conditions,WindDirDegrees,DateUTC
12:00 AM,49,42,71,29.52,28,SSW,12.7,,,,Partly Cloudy,200,2012-11-04 00:00:00
3:00 AM,48,46,89,29.39,4,South,20.7,,,Rain,Heavy Rain Showers,180,2012-11-04 03:00:00
3:50 AM,48.2,46.4,93,29.30,6.2,South,20.7,33.4,N/A,,Mostly Cloudy,180,2012-11-04 03:50:00
4:20 AM,48.2,46.4,93,29.27,6.2,South,21.9,33.4,N/A,Rain,Rain Showers,180,2012-11-04 04:20:00
4:50 AM,48.2,46.4,93,29.27,6.2,South,18.4,-,N/A,,Scattered Clouds,170,2012-11-04 04:50:00
5:20 AM,48.2,44.6,87,29.24,6.2,South,24.2,-,N/A,,Scattered Clouds,190,2012-11-04 05:20:00
5:50 AM,48.2,46.4,93,29.24,6.2,SSW,27.6,39.1,N/A,Rain,Light Rain Showers,210,2012-11-04 05:50:00
6:00 AM,48,46,90,29.26,7,SSW,27.6,,,Rain,Light Rain Showers,210,2012-11-04 06:00:00
6:20 AM,48.2,44.6,87,29.27,6.2,WSW,29.9,41.4,N/A,,Mostly Cloudy,250,2012-11-04 06:20:00
6:50 AM,46.4,44.6,93,29.27,6.2,West,31.1,-,N/A,Rain,Light Rain Showers,260,2012-11-04 06:50:00
7:20 AM,46.4,42.8,87,29.30,6.2,West,29.9,-,N/A,Rain,Light Rain Showers,260,2012-11-04 07:20:00
7:50 AM,46.4,42.8,87,29.30,6.2,West,31.1,43.7,N/A,,Mostly Cloudy,280,2012-11-04 07:50:00
8:20 AM,46.4,42.8,87,29.36,6.2,West,27.6,-,N/A,,Mostly Cloudy,280,2012-11-04 08:20:00
8:50 AM,48.2,42.8,82,29.36,6.2,West,25.3,-,N/A,,Scattered Clouds,270,2012-11-04 08:50:00
9:00 AM,47,42,79,29.38,25,West,25.3,,,Rain,Light Rain Showers,270,2012-11-04 09:00:00
9:20 AM,50.0,41.0,71,29.36,6.2,West,20.7,-,N/A,,Scattered Clouds,270,2012-11-04 09:20:00
9:50 AM,50.0,42.8,76,29.36,6.2,WSW,18.4,-,N/A,,Scattered Clouds,250,2012-11-04 09:50:00
10:20 AM,48.2,44.6,87,29.39,6.2,WSW,18.4,29.9,N/A,,Mostly Cloudy,240,2012-11-04 10:20:00
10:50 AM,46.4,44.6,93,29.39,6.2,WSW,20.7,-,N/A,Rain,Heavy Rain Showers,240,2012-11-04 10:50:00
11:20 AM,50.0,46.4,87,29.36,6.2,SW,23.0,-,N/A,,Scattered Clouds,230,2012-11-04 11:20:00
11:50 AM,51.8,44.6,76,29.36,6.2,WSW,23.0,35.7,N/A,,Scattered Clouds,240,2012-11-04 11:50:00
12:00 PM,51,45,72,29.38,19,WSW,23.0,,,Rain,Light Rain Showers,240,2012-11-04 12:00:00
12:20 PM,50.0,46.4,87,29.36,6.2,SW,25.3,36.8,N/A,Rain,Light Rain Showers,230,2012-11-04 12:20:00
12:50 PM,50.0,44.6,82,29.36,6.2,WSW,19.6,-,N/A,,Partly Cloudy,240,2012-11-04 12:50:00
1:20 PM,51.8,46.4,82,29.36,6.2,WSW,21.9,-,N/A,Rain,Light Rain Showers,240,2012-11-04 13:20:00
1:50 PM,48.2,44.6,87,29.36,6.2,West,18.4,-,N/A,,Scattered Clouds,260,2012-11-04 13:50:00
2:20 PM,51.8,46.4,82,29.36,6.2,WSW,20.7,-,N/A,,Scattered Clouds,240,2012-11-04 14:20:00
2:50 PM,51.8,44.6,76,29.39,6.2,WSW,21.9,-,N/A,Rain,Light Rain Showers,250,2012-11-04 14:50:00
3:00 PM,51,44,69,29.39,9,WSW,21.9,,,Rain,Light Rain Showers,250,2012-11-04 15:00:00
3:20 PM,50.0,42.8,76,29.39,6.2,WSW,18.4,-,N/A,,Partly Cloudy,250,2012-11-04 15:20:00
3:50 PM,50.0,44.6,82,29.39,6.2,WSW,17.3,-,N/A,,Partly Cloudy,240,2012-11-04 15:50:00
4:20 PM,50.0,42.8,76,29.39,6.2,WSW,20.7,-,N/A,,Partly Cloudy,250,2012-11-04 16:20:00
4:50 PM,50.0,41.0,71,29.39,6.2,WSW,23.0,-,N/A,,Partly Cloudy,250,2012-11-04 16:50:00
5:20 PM,50.0,41.0,71,29.42,6.2,WSW,20.7,-,N/A,,Partly Cloudy,250,2012-11-04 17:20:00
5:50 PM,50.0,39.2,66,29.42,6.2,WSW,19.6,-,N/A,,Partly Cloudy,250,2012-11-04 17:50:00
6:00 PM,50,40,58,29.42,12,WSW,19.6,,,,Scattered Clouds,250,2012-11-04 18:00:00
6:20 PM,50.0,41.0,71,29.42,6.2,WSW,20.7,-,N/A,,Scattered Clouds,240,2012-11-04 18:20:00
6:50 PM,50.0,42.8,76,29.42,6.2,WSW,18.4,-,N/A,,Scattered Clouds,240,2012-11-04 18:50:00
7:20 PM,48.2,42.8,82,29.42,6.2,WSW,13.8,-,N/A,,Partly Cloudy,250,2012-11-04 19:20:00
7:50 PM,50.0,42.8,76,29.42,6.2,SW,17.3,-,N/A,,Scattered Clouds,230,2012-11-04 19:50:00
8:20 PM,50.0,42.8,76,29.42,6.2,SW,21.9,-,N/A,,Scattered Clouds,230,2012-11-04 20:20:00
8:50 PM,50.0,42.8,76,29.42,6.2,SW,19.6,-,N/A,,Partly Cloudy,230,2012-11-04 20:50:00
9:00 PM,51,43,66,29.42,12,SW,19.6,,,,Mostly Cloudy,230,2012-11-04 21:00:00